Time,TemperatureF,DewpointF,PressureIn,WindDirection,WindDirectionDegrees,WindSpeedMPH,WindSpeedGustMPH,Humidity,HourlyPrecipIn,Conditions,Clouds,dailyrainin,SoftwareType,DateUTC
2013-12-03 00:01:00,36.5,35.5,29.84,WNW,282,0.0,0.0,96,0.00,,,0.01,Wunderground v.1.12,2013-12-03 05:01:00,
2013-12-03 00:02:00,36.5,35.5,29.84,WNW,282,0.0,0.0,96,0.00,,,0.00,Wunderground v.1.12,2013-12-03 05:02:00,
2013-12-03 00:03:00,36.5,35.5,29.84,WNW,282,0.0,0.0,96,0.00,,,0.00,Wunderground v.1.12,2013-12-03 05:03:00,
2013-12-03 00:04:00,36.5,35.5,29.84,WNW,282,0.0,0.0,96,0.00,,,0.00,Wunderground v.1.12,2013-12-03 05:04:00,
2013-12-03 00:05:00,36.5,35.5,29.84,WNW,282,0.0,0.0,96,0.00,,,0.00,Wunderground v.1.12,2013-12-03 05:05:00,
2013-12-03 00:08:00,36.3,35.3,29.84,WNW,282,0.0,0.0,96,0.00,,,0.00,Wunderground v.1.12,2013-12-03 05:08:00,
2013-12-03 00:14:00,36.5,35.5,29.84,WNW,282,0.0,0.0,96,0.00,,,0.00,Wunderground v.1.12,2013-12-03 05:14:00,
2013-12-03 00:20:00,36.5,35.7,29.84,WNW,282,0.0,1.0,97,0.00,,,0.00,Wunderground v.1.12,2013-12-03 05:20:00,
2013-12-03 00:26:00,36.5,35.5,29.84,WNW,282,1.0,1.0,96,0.00,,,0.00,Wunderground v.1.12,2013-12-03 05:26:00,
2013-12-03 00:32:00,36.5,35.5,29.83,WNW,282,1.0,1.0,96,0.00,,,0.00,Wunderground v.1.12,2013-12-03 05:32:00,
2013-12-03 00:37:00,36.5,35.5,29.83,WNW,282,0.0,1.0,96,0.00,,,0.00,Wunderground v.1.12,2013-12-03 05:37:00,
2013-12-03 00:38:00,36.5,35.5,29.83,WNW,293,0.0,5.0,96,0.00,,,0.00,Wunderground v.1.12,2013-12-03 05:38:00,
2013-12-03 00:43:00,36.3,35.3,29.83,WNW,282,0.0,0.0,96,0.00,,,0.00,Wunderground v.1.12,2013-12-03 05:43:00,
2013-12-03 00:49:00,36.3,35.3,29.82,WNW,282,0.0,4.0,96,0.00,,,0.00,Wunderground v.1.12,2013-12-03 05:49:00,
2013-12-03 00:55:00,36.3,35.3,29.82,WNW,282,1.0,1.0,96,0.00,,,0.00,Wunderground v.1.12,2013-12-03 05:55:00,
2013-12-03 01:00:00,36.5,35.5,29.82,WNW,282,0.0,1.0,96,0.00,,,0.00,Wunderground v.1.12,2013-12-03 06:00:00,
2013-12-03 01:06:00,36.3,35.3,29.82,WNW,282,1.0,2.0,96,0.00,,,0.00,Wunderground v.1.12,2013-12-03 06:06:00,
2013-12-03 01:08:00,36.5,35.5,29.82,WNW,293,0.0,4.0,96,0.00,,,0.00,Wunderground v.1.12,2013-12-03 06:08:00,
2013-12-03 01:13:00,36.3,35.3,29.82,WNW,282,1.0,1.0,96,0.00,,,0.00,Wunderground v.1.12,2013-12-03 06:13:00,
2013-12-03 01:18:00,36.3,35.3,29.82,WNW,282,0.0,1.0,96,0.00,,,0.00,Wunderground v.1.12,2013-12-03 06:18:00,
2013-12-03 01:24:00,36.3,35.3,29.82,WNW,282,0.0,2.0,96,0.00,,,0.00,Wunderground v.1.12,2013-12-03 06:24:00,
2013-12-03 01:29:00,36.3,35.3,29.82,WNW,283,1.0,1.0,96,0.00,,,0.00,Wunderground v.1.12,2013-12-03 06:29:00,
2013-12-03 01:35:00,36.3,35.3,29.82,WNW,283,1.0,1.0,96,0.00,,,0.00,Wunderground v.1.12,2013-12-03 06:35:00,
2013-12-03 01:38:00,36.3,35.3,29.82,WNW,293,1.0,6.0,96,0.00,,,0.00,Wunderground v.1.12,2013-12-03 06:38:00,
2013-12-03 01:42:00,36.2,35.2,29.82,WNW,283,0.0,0.0,96,0.00,,,0.00,Wunderground v.1.12,2013-12-03 06:42:00,
2013-12-03 01:48:00,36.2,35.2,29.83,WNW,284,1.0,3.0,96,0.00,,,0.00,Wunderground v.1.12,2013-12-03 06:48:00,
2013-12-03 01:53:00,36.2,35.2,29.83,WNW,284,1.0,1.0,96,0.00,,,0.00,Wunderground v.1.12,2013-12-03 06:53:00,
2013-12-03 01:59:00,36.2,35.2,29.83,WNW,284,0.0,1.0,96,0.00,,,0.00,Wunderground v.1.12,2013-12-03 06:59:00,
2013-12-03 02:04:00,36.2,35.2,29.83,WNW,284,0.0,0.0,96,0.00,,,0.00,Wunderground v.1.12,2013-12-03 07:04:00,
2013-12-03 02:08:00,36.2,35.2,29.83,WNW,293,1.0,6.0,96,0.00,,,0.00,Wunderground v.1.12,2013-12-03 07:08:00,
2013-12-03 02:10:00,36.2,35.2,29.83,WNW,284,1.0,1.0,96,0.00,,,0.00,Wunderground v.1.12,2013-12-03 07:10:00,
2013-12-03 02:16:00,36.2,35.2,29.82,WNW,284,0.0,0.0,96,0.00,,,0.00,Wunderground v.1.12,2013-12-03 07:16:00,
2013-12-03 02:22:00,36.2,35.2,29.82,WNW,284,0.0,1.0,96,0.00,,,0.00,Wunderground v.1.12,2013-12-03 07:22:00,
2013-12-03 02:28:00,36.0,35.0,29.82,WNW,284,0.0,3.0,96,0.00,,,0.00,Wunderground v.1.12,2013-12-03 07:28:00,
2013-12-03 02:33:00,36.2,35.2,29.83,WNW,284,1.0,2.0,96,0.00,,,0.00,Wunderground v.1.12,2013-12-03 07:33:00,
2013-12-03 02:38:00,36.2,35.2,29.83,WNW,284,1.0,3.0,96,0.00,,,0.00,Wunderground v.1.12,2013-12-03 07:38:00,
2013-12-03 02:44:00,36.2,35.2,29.83,WNW,284,0.0,0.0,96,0.00,,,0.00,Wunderground v.1.12,2013-12-03 07:44:00,
2013-12-03 02:50:00,36.2,35.2,29.83,WNW,284,0.0,0.0,96,0.00,,,0.00,Wunderground v.1.12,2013-12-03 07:50:00,
2013-12-03 02:55:00,36.2,35.2,29.83,WNW,286,1.0,3.0,96,0.00,,,0.00,Wunderground v.1.12,2013-12-03 07:55:00,
2013-12-03 03:01:00,36.2,35.2,29.82,WNW,286,1.0,3.0,96,0.00,,,0.00,Wunderground v.1.12,2013-12-03 08:01:00,
2013-12-03 03:06:00,36.2,35.2,29.82,WNW,287,1.0,1.0,96,0.00,,,0.00,Wunderground v.1.12,2013-12-03 08:06:00,
2013-12-03 03:08:00,36.2,35.2,29.82,WNW,293,1.0,7.0,96,0.00,,,0.00,Wunderground v.1.12,2013-12-03 08:08:00,
2013-12-03 03:11:00,36.2,35.2,29.82,WNW,287,1.0,1.0,96,0.00,,,0.00,Wunderground v.1.12,2013-12-03 08:11:00,
2013-12-03 03:18:00,36.2,35.2,29.81,WNW,287,1.0,1.0,96,0.00,,,0.00,Wunderground v.1.12,2013-12-03 08:18:00,
2013-12-03 03:24:00,36.0,35.0,29.81,WNW,288,1.0,2.0,96,0.00,,,0.00,Wunderground v.1.12,2013-12-03 08:24:00,
2013-12-03 03:29:00,35.9,34.9,29.81,WNW,301,2.0,4.0,96,0.00,,,0.00,Wunderground v.1.12,2013-12-03 08:29:00,
2013-12-03 03:35:00,35.8,34.8,29.81,NW,311,2.0,4.0,96,0.00,,,0.00,Wunderground v.1.12,2013-12-03 08:35:00,
2013-12-03 03:38:00,35.9,34.9,29.81,WNW,293,1.0,9.0,96,0.00,,,0.00,Wunderground v.1.12,2013-12-03 08:38:00,
2013-12-03 03:41:00,35.8,34.8,29.81,NW,311,1.0,1.0,96,0.00,,,0.00,Wunderground v.1.12,2013-12-03 08:41:00,
2013-12-03 03:47:00,35.8,34.8,29.81,NW,311,1.0,3.0,96,0.00,,,0.00,Wunderground v.1.12,2013-12-03 08:47:00,
2013-12-03 03:53:00,35.8,34.8,29.81,NW,319,1.0,3.0,96,0.00,,,0.00,Wunderground v.1.12,2013-12-03 08:53:00,
2013-12-03 03:59:00,35.8,34.8,29.81,NW,316,1.0,2.0,96,0.00,,,0.00,Wunderground v.1.12,2013-12-03 08:59:00,
2013-12-03 04:04:00,35.6,34.6,29.81,NW,316,1.0,1.0,96,0.00,,,0.00,Wunderground v.1.12,2013-12-03 09:04:00,
2013-12-03 04:05:00,35.6,34.6,29.81,NW,315,1.0,7.0,96,0.00,,,0.00,Wunderground v.1.12,2013-12-03 09:05:00,
2013-12-03 04:10:00,35.6,34.6,29.81,NW,316,0.0,0.0,96,0.00,,,0.00,Wunderground v.1.12,2013-12-03 09:10:00,
2013-12-03 04:16:00,35.6,34.6,29.81,NW,316,0.0,0.0,96,0.00,,,0.00,Wunderground v.1.12,2013-12-03 09:16:00,
2013-12-03 04:22:00,35.5,34.5,29.81,NW,316,0.0,0.0,96,0.00,,,0.00,Wunderground v.1.12,2013-12-03 09:22:00,
2013-12-03 04:28:00,35.5,34.5,29.81,NW,316,0.0,0.0,96,0.00,,,0.00,Wunderground v.1.12,2013-12-03 09:28:00,
2013-12-03 04:33:00,35.5,34.5,29.81,NW,316,0.0,0.0,96,0.00,,,0.00,Wunderground v.1.12,2013-12-03 09:33:00,
2013-12-03 04:38:00,35.5,34.5,29.81,NW,316,0.0,2.0,96,0.00,,,0.00,Wunderground v.1.12,2013-12-03 09:38:00,
2013-12-03 04:44:00,35.5,34.5,29.81,NW,317,1.0,3.0,96,0.00,,,0.00,Wunderground v.1.12,2013-12-03 09:44:00,
2013-12-03 04:50:00,35.5,34.5,29.82,NW,317,1.0,1.0,96,0.00,,,0.00,Wunderground v.1.12,2013-12-03 09:50:00,
2013-12-03 04:55:00,35.5,34.5,29.82,NW,317,0.0,0.0,96,0.00,,,0.00,Wunderground v.1.12,2013-12-03 09:55:00,
2013-12-03 05:01:00,35.5,34.5,29.83,NW,317,0.0,0.0,96,0.00,,,0.00,Wunderground v.1.12,2013-12-03 10:01:00,
2013-12-03 05:07:00,35.5,34.5,29.83,NW,317,0.0,0.0,96,0.00,,,0.00,Wunderground v.1.12,2013-12-03 10:07:00,
2013-12-03 05:08:00,35.5,34.5,29.83,NW,315,0.0,7.0,96,0.00,,,0.00,Wunderground v.1.12,2013-12-03 10:08:00,
2013-12-03 05:13:00,35.5,34.5,29.83,NW,317,0.0,0.0,96,0.00,,,0.00,Wunderground v.1.12,2013-12-03 10:13:00,
2013-12-03 05:18:00,35.5,34.5,29.83,NW,317,0.0,0.0,96,0.00,,,0.00,Wunderground v.1.12,2013-12-03 10:18:00,
2013-12-03 05:24:00,35.5,34.5,29.83,NW,317,0.0,0.0,96,0.00,,,0.00,Wunderground v.1.12,2013-12-03 10:24:00,
2013-12-03 05:30:00,35.5,34.5,29.82,NW,317,0.0,0.0,96,0.00,,,0.00,Wunderground v.1.12,2013-12-03 10:30:00,
2013-12-03 05:36:00,35.5,34.5,29.82,NW,317,0.0,0.0,96,0.00,,,0.00,Wunderground v.1.12,2013-12-03 10:36:00,
2013-12-03 05:38:00,35.5,34.5,29.82,NW,315,0.0,2.0,96,0.00,,,0.00,Wunderground v.1.12,2013-12-03 10:38:00,
2013-12-03 05:41:00,35.5,34.5,29.82,NW,317,0.0,2.0,96,0.00,,,0.00,Wunderground v.1.12,2013-12-03 10:41:00,
2013-12-03 05:48:00,35.5,34.5,29.81,NW,317,0.0,2.0,96,0.00,,,0.00,Wunderground v.1.12,2013-12-03 10:48:00,
2013-12-03 05:54:00,35.5,34.5,29.81,NW,317,0.0,0.0,96,0.00,,,0.00,Wunderground v.1.12,2013-12-03 10:54:00,
2013-12-03 05:59:00,35.6,34.8,29.81,NW,317,0.0,0.0,97,0.00,,,0.00,Wunderground v.1.12,2013-12-03 10:59:00,
2013-12-03 06:05:00,35.6,34.8,29.82,NW,317,0.0,0.0,97,0.00,,,0.00,Wunderground v.1.12,2013-12-03 11:05:00,
2013-12-03 06:08:00,35.6,34.8,29.82,NW,315,0.0,5.0,97,0.00,,,0.00,Wunderground v.1.12,2013-12-03 11:08:00,
2013-12-03 06:10:00,35.6,34.6,29.82,NW,317,0.0,0.0,96,0.00,,,0.00,Wunderground v.1.12,2013-12-03 11:10:00,
2013-12-03 06:16:00,35.6,34.8,29.82,NW,317,1.0,1.0,97,0.00,,,0.00,Wunderground v.1.12,2013-12-03 11:16:00,
2013-12-03 06:21:00,35.6,34.6,29.82,NW,317,0.0,1.0,96,0.00,,,0.00,Wunderground v.1.12,2013-12-03 11:21:00,
2013-12-03 06:27:00,35.6,34.8,29.82,NW,317,0.0,0.0,97,0.00,,,0.00,Wunderground v.1.12,2013-12-03 11:27:00,
2013-12-03 06:33:00,35.6,34.8,29.82,NW,317,0.0,0.0,97,0.00,,,0.00,Wunderground v.1.12,2013-12-03 11:33:00,
2013-12-03 06:38:00,35.6,34.8,29.82,NW,315,0.0,4.0,97,0.00,,,0.00,Wunderground v.1.12,2013-12-03 11:38:00,
2013-12-03 06:39:00,35.6,34.6,29.82,NW,317,0.0,1.0,96,0.00,,,0.00,Wunderground v.1.12,2013-12-03 11:39:00,
2013-12-03 06:45:00,35.6,34.8,29.82,NW,317,0.0,0.0,97,0.00,,,0.00,Wunderground v.1.12,2013-12-03 11:45:00,
2013-12-03 06:50:00,35.6,34.8,29.82,NW,317,0.0,1.0,97,0.00,,,0.00,Wunderground v.1.12,2013-12-03 11:50:00,
2013-12-03 06:56:00,35.6,34.8,29.82,NW,317,0.0,0.0,97,0.00,,,0.00,Wunderground v.1.12,2013-12-03 11:56:00,
2013-12-03 07:03:00,35.6,34.8,29.82,NW,317,0.0,0.0,97,0.00,,,0.00,Wunderground v.1.12,2013-12-03 12:03:00,
2013-12-03 07:08:00,35.6,34.8,29.82,NW,317,0.0,1.0,97,0.00,,,0.00,Wunderground v.1.12,2013-12-03 12:08:00,
2013-12-03 07:14:00,35.6,34.8,29.82,NW,317,0.0,0.0,97,0.00,,,0.00,Wunderground v.1.12,2013-12-03 12:14:00,
2013-12-03 07:20:00,35.6,34.8,29.82,NW,317,0.0,2.0,97,0.00,,,0.00,Wunderground v.1.12,2013-12-03 12:20:00,
2013-12-03 07:25:00,35.6,34.8,29.82,NW,317,0.0,0.0,97,0.00,,,0.00,Wunderground v.1.12,2013-12-03 12:25:00,
2013-12-03 07:31:00,35.6,34.8,29.83,NW,317,0.0,1.0,97,0.00,,,0.00,Wunderground v.1.12,2013-12-03 12:31:00,
2013-12-03 07:36:00,35.6,34.6,29.83,NW,315,0.0,3.0,96,0.00,,,0.00,Wunderground v.1.12,2013-12-03 12:36:00,
2013-12-03 07:37:00,35.5,34.7,29.83,NW,317,1.0,4.0,97,0.00,,,0.00,Wunderground v.1.12,2013-12-03 12:37:00,
2013-12-03 07:43:00,35.5,34.7,29.83,NW,317,1.0,2.0,97,0.00,,,0.00,Wunderground v.1.12,2013-12-03 12:43:00,
2013-12-03 07:48:00,35.5,34.7,29.82,NW,317,1.0,2.0,97,0.00,,,0.00,Wunderground v.1.12,2013-12-03 12:48:00,
2013-12-03 07:53:00,35.5,34.7,29.82,NW,317,1.0,4.0,97,0.00,,,0.00,Wunderground v.1.12,2013-12-03 12:53:00,
2013-12-03 07:58:00,35.5,34.7,29.82,NW,317,1.0,3.0,97,0.00,,,0.00,Wunderground v.1.12,2013-12-03 12:58:00,
2013-12-03 08:04:00,35.5,34.7,29.83,NW,317,1.0,1.0,97,0.00,,,0.00,Wunderground v.1.12,2013-12-03 13:04:00,
2013-12-03 08:08:00,35.5,34.7,29.83,NW,315,1.0,4.0,97,0.00,,,0.00,Wunderground v.1.12,2013-12-03 13:08:00,
2013-12-03 08:10:00,35.5,34.7,29.83,NW,317,1.0,3.0,97,0.00,,,0.00,Wunderground v.1.12,2013-12-03 13:10:00,
2013-12-03 08:16:00,35.5,34.7,29.83,NW,317,1.0,3.0,97,0.00,,,0.00,Wunderground v.1.12,2013-12-03 13:16:00,
2013-12-03 08:21:00,35.5,34.7,29.83,NW,317,1.0,1.0,97,0.00,,,0.00,Wunderground v.1.12,2013-12-03 13:21:00,
2013-12-03 08:28:00,35.6,34.8,29.83,NW,317,0.0,1.0,97,0.00,,,0.00,Wunderground v.1.12,2013-12-03 13:28:00,
2013-12-03 08:33:00,35.6,34.8,29.83,NW,317,0.0,0.0,97,0.00,,,0.00,Wunderground v.1.12,2013-12-03 13:33:00,
2013-12-03 08:38:00,35.6,34.8,29.83,NW,315,1.0,4.0,97,0.00,,,0.00,Wunderground v.1.12,2013-12-03 13:38:00,
2013-12-03 08:39:00,35.8,35.0,29.83,NW,317,0.0,0.0,97,0.00,,,0.00,Wunderground v.1.12,2013-12-03 13:39:00,
2013-12-03 08:44:00,35.9,35.1,29.83,NW,317,0.0,0.0,97,0.00,,,0.00,Wunderground v.1.12,2013-12-03 13:44:00,
2013-12-03 08:50:00,35.9,35.1,29.83,NW,317,0.0,0.0,97,0.00,,,0.00,Wunderground v.1.12,2013-12-03 13:50:00,
2013-12-03 08:55:00,35.9,35.1,29.83,NW,317,0.0,0.0,97,0.00,,,0.00,Wunderground v.1.12,2013-12-03 13:55:00,
2013-12-03 09:00:00,35.9,35.1,29.83,NW,317,0.0,0.0,97,0.00,,,0.00,Wunderground v.1.12,2013-12-03 14:00:00,
2013-12-03 09:06:00,36.0,35.2,29.83,NW,317,0.0,0.0,97,0.00,,,0.00,Wunderground v.1.12,2013-12-03 14:06:00,
2013-12-03 09:08:00,35.9,35.1,29.83,NW,315,0.0,3.0,97,0.00,,,0.00,Wunderground v.1.12,2013-12-03 14:08:00,
2013-12-03 09:12:00,35.8,35.0,29.83,NW,317,1.0,2.0,97,0.00,,,0.00,Wunderground v.1.12,2013-12-03 14:12:00,
2013-12-03 09:18:00,35.8,35.0,29.83,NW,317,1.0,3.0,97,0.00,,,0.00,Wunderground v.1.12,2013-12-03 14:18:00,
2013-12-03 09:23:00,35.6,34.8,29.83,NW,317,2.0,3.0,97,0.00,,,0.00,Wunderground v.1.12,2013-12-03 14:23:00,
2013-12-03 09:28:00,35.8,35.0,29.83,NW,317,1.0,1.0,97,0.00,,,0.00,Wunderground v.1.12,2013-12-03 14:28:00,
2013-12-03 09:34:00,35.9,35.1,29.82,NW,317,1.0,3.0,97,0.00,,,0.00,Wunderground v.1.12,2013-12-03 14:34:00,
2013-12-03 09:38:00,35.8,35.0,29.82,NW,315,1.0,6.0,97,0.00,,,0.00,Wunderground v.1.12,2013-12-03 14:38:00,
2013-12-03 09:39:00,35.9,35.1,29.82,NW,318,1.0,1.0,97,0.00,,,0.00,Wunderground v.1.12,2013-12-03 14:39:00,
2013-12-03 09:45:00,35.9,35.1,29.82,NW,321,2.0,2.0,97,0.00,,,0.00,Wunderground v.1.12,2013-12-03 14:45:00,
2013-12-03 09:51:00,36.0,35.2,29.82,NW,318,2.0,2.0,97,0.00,,,0.00,Wunderground v.1.12,2013-12-03 14:51:00,
2013-12-03 09:56:00,36.2,35.4,29.82,NW,318,2.0,5.0,97,0.00,,,0.00,Wunderground v.1.12,2013-12-03 14:56:00,
2013-12-03 10:03:00,36.6,35.8,29.82,NW,319,1.0,4.0,97,0.00,,,0.00,Wunderground v.1.12,2013-12-03 15:03:00,
2013-12-03 10:08:00,36.8,36.0,29.82,NW,311,1.0,5.0,97,0.00,,,0.00,Wunderground v.1.12,2013-12-03 15:08:00,
2013-12-03 10:14:00,36.9,36.1,29.82,NW,306,2.0,2.0,97,0.00,,,0.00,Wunderground v.1.12,2013-12-03 15:14:00,
2013-12-03 10:19:00,37.2,36.4,29.81,WNW,286,1.0,2.0,97,0.00,,,0.00,Wunderground v.1.12,2013-12-03 15:19:00,
2013-12-03 10:25:00,37.5,36.7,29.81,WNW,298,1.0,1.0,97,0.00,,,0.00,Wunderground v.1.12,2013-12-03 15:25:00,
2013-12-03 10:31:00,37.6,36.8,29.81,WNW,301,1.0,5.0,97,0.00,,,0.00,Wunderground v.1.12,2013-12-03 15:31:00,
2013-12-03 10:35:00,37.6,36.8,29.81,NW,315,1.0,6.0,97,0.00,,,0.00,Wunderground v.1.12,2013-12-03 15:35:00,
2013-12-03 10:38:00,37.9,37.1,29.81,NW,323,1.0,3.0,97,0.00,,,0.00,Wunderground v.1.12,2013-12-03 15:38:00,
2013-12-03 10:43:00,38.0,37.0,29.81,WNW,298,1.0,4.0,96,0.00,,,0.00,Wunderground v.1.12,2013-12-03 15:43:00,
2013-12-03 10:49:00,38.2,37.2,29.80,WNW,302,2.0,5.0,96,0.00,,,0.00,Wunderground v.1.12,2013-12-03 15:49:00,
2013-12-03 10:54:00,38.6,37.6,29.80,WNW,302,1.0,1.0,96,0.00,,,0.00,Wunderground v.1.12,2013-12-03 15:54:00,
2013-12-03 11:00:00,38.9,37.9,29.79,WNW,288,1.0,2.0,96,0.00,,,0.00,Wunderground v.1.12,2013-12-03 16:00:00,
2013-12-03 11:06:00,38.9,37.6,29.79,WNW,285,2.0,2.0,95,0.00,,,0.00,Wunderground v.1.12,2013-12-03 16:06:00,
2013-12-03 11:08:00,38.9,37.9,29.79,NW,315,1.0,7.0,96,0.00,,,0.00,Wunderground v.1.12,2013-12-03 16:08:00,
2013-12-03 11:11:00,38.9,37.3,29.79,WNW,282,3.0,5.0,94,0.00,,,0.00,Wunderground v.1.12,2013-12-03 16:11:00,
2013-12-03 11:18:00,39.2,37.6,29.79,NW,311,3.0,3.0,94,0.00,,,0.00,Wunderground v.1.12,2013-12-03 16:18:00,
2013-12-03 11:23:00,39.6,37.7,29.79,NW,323,2.0,5.0,93,0.00,,,0.00,Wunderground v.1.12,2013-12-03 16:23:00,
2013-12-03 11:29:00,40.2,38.1,29.79,NW,317,2.0,6.0,92,0.00,,,0.00,Wunderground v.1.12,2013-12-03 16:29:00,
2013-12-03 11:35:00,40.5,38.1,29.78,WNW,296,3.0,3.0,91,0.00,,,0.00,Wunderground v.1.12,2013-12-03 16:35:00,
2013-12-03 11:38:00,40.2,38.1,29.78,WNW,293,2.0,9.0,92,0.00,,,0.00,Wunderground v.1.12,2013-12-03 16:38:00,
2013-12-03 11:41:00,41.3,38.6,29.78,WNW,296,2.0,5.0,90,0.00,,,0.00,Wunderground v.1.12,2013-12-03 16:41:00,
2013-12-03 11:48:00,41.8,38.2,29.78,West,281,2.0,3.0,87,0.00,,,0.00,Wunderground v.1.12,2013-12-03 16:48:00,
2013-12-03 11:53:00,41.9,38.0,29.78,WNW,292,2.0,5.0,86,0.00,,,0.00,Wunderground v.1.12,2013-12-03 16:53:00,
2013-12-03 11:59:00,42.1,37.3,29.78,NNW,334,3.0,3.0,83,0.00,,,0.00,Wunderground v.1.12,2013-12-03 16:59:00,
2013-12-03 12:05:00,42.6,37.8,29.77,North,5,2.0,5.0,83,0.00,,,0.00,Wunderground v.1.12,2013-12-03 17:05:00,
2013-12-03 12:08:00,42.2,37.7,29.77,WNW,293,2.0,9.0,84,0.00,,,0.00,Wunderground v.1.12,2013-12-03 17:08:00,
2013-12-03 12:10:00,42.6,37.2,29.77,WNW,291,3.0,4.0,81,0.00,,,0.00,Wunderground v.1.12,2013-12-03 17:10:00,
2013-12-03 12:16:00,43.3,37.5,29.77,NNW,334,2.0,5.0,80,0.00,,,0.00,Wunderground v.1.12,2013-12-03 17:16:00,
2013-12-03 12:22:00,43.6,37.2,29.77,NW,325,1.0,3.0,78,0.00,,,0.00,Wunderground v.1.12,2013-12-03 17:22:00,
2013-12-03 12:28:00,43.9,36.8,29.77,NW,320,2.0,6.0,76,0.00,,,0.00,Wunderground v.1.12,2013-12-03 17:28:00,
2013-12-03 12:34:00,43.9,36.8,29.76,NNW,327,3.0,4.0,76,0.00,,,0.00,Wunderground v.1.12,2013-12-03 17:34:00,
2013-12-03 12:38:00,43.9,36.8,29.76,NNW,338,2.0,7.0,76,0.00,,,0.00,Wunderground v.1.12,2013-12-03 17:38:00,
2013-12-03 12:39:00,44.1,37.0,29.76,NNW,333,1.0,4.0,76,0.00,,,0.00,Wunderground v.1.12,2013-12-03 17:39:00,
2013-12-03 12:45:00,44.5,37.1,29.76,NNW,346,1.0,1.0,75,0.00,,,0.00,Wunderground v.1.12,2013-12-03 17:45:00,
2013-12-03 12:51:00,45.2,37.4,29.76,NNW,343,0.0,1.0,74,0.00,,,0.00,Wunderground v.1.12,2013-12-03 17:51:00,
2013-12-03 12:58:00,45.2,37.1,29.76,NNE,19,1.0,1.0,73,0.00,,,0.00,Wunderground v.1.12,2013-12-03 17:58:00,
2013-12-03 13:03:00,45.2,37.4,29.75,North,355,1.0,4.0,74,0.00,,,0.00,Wunderground v.1.12,2013-12-03 18:03:00,
2013-12-03 13:08:00,45.5,37.7,29.75,NW,321,1.0,5.0,74,0.00,,,0.00,Wunderground v.1.12,2013-12-03 18:08:00,
2013-12-03 13:14:00,45.4,36.5,29.75,North,355,1.0,3.0,71,0.00,,,0.00,Wunderground v.1.12,2013-12-03 18:14:00,
2013-12-03 13:19:00,45.4,36.5,29.75,North,355,1.0,1.0,71,0.00,,,0.00,Wunderground v.1.12,2013-12-03 18:19:00,
2013-12-03 13:25:00,45.4,35.8,29.75,NNW,342,1.0,5.0,69,0.00,,,0.00,Wunderground v.1.12,2013-12-03 18:25:00,
2013-12-03 13:31:00,45.5,35.5,29.75,NNW,343,2.0,5.0,68,0.00,,,0.00,Wunderground v.1.12,2013-12-03 18:31:00,
2013-12-03 13:37:00,45.7,35.7,29.75,NW,313,2.0,2.0,68,0.00,,,0.00,Wunderground v.1.12,2013-12-03 18:37:00,
2013-12-03 13:43:00,45.8,35.5,29.75,North,5,2.0,3.0,67,0.00,,,0.00,Wunderground v.1.12,2013-12-03 18:43:00,
2013-12-03 13:48:00,46.1,35.7,29.75,NW,315,2.0,3.0,67,0.00,,,0.00,Wunderground v.1.12,2013-12-03 18:48:00,
2013-12-03 13:53:00,46.0,34.9,29.75,NNW,331,3.0,8.0,65,0.00,,,0.00,Wunderground v.1.12,2013-12-03 18:53:00,
2013-12-03 13:59:00,46.2,35.5,29.75,NW,315,2.0,2.0,66,0.00,,,0.00,Wunderground v.1.12,2013-12-03 18:59:00,
2013-12-03 14:05:00,46.4,35.3,29.75,NNW,342,3.0,3.0,65,0.00,,,0.00,Wunderground v.1.12,2013-12-03 19:05:00,
2013-12-03 14:08:00,46.4,35.7,29.75,NNW,338,2.0,10.0,66,0.00,,,0.00,Wunderground v.1.12,2013-12-03 19:08:00,
2013-12-03 14:11:00,46.7,35.9,29.75,North,360,2.0,3.0,66,0.00,,,0.00,Wunderground v.1.12,2013-12-03 19:11:00,
2013-12-03 14:17:00,46.5,35.4,29.75,NW,315,2.0,4.0,65,0.00,,,0.00,Wunderground v.1.12,2013-12-03 19:17:00,
2013-12-03 14:23:00,46.4,35.7,29.75,NNW,335,2.0,3.0,66,0.00,,,0.00,Wunderground v.1.12,2013-12-03 19:23:00,
2013-12-03 14:29:00,46.4,35.3,29.75,NW,313,2.0,4.0,65,0.00,,,0.00,Wunderground v.1.12,2013-12-03 19:29:00,
2013-12-03 14:34:00,46.2,35.1,29.76,NNW,338,1.0,1.0,65,0.00,,,0.00,Wunderground v.1.12,2013-12-03 19:34:00,
2013-12-03 14:36:00,46.4,35.3,29.76,NNW,338,2.0,7.0,65,0.00,,,0.00,Wunderground v.1.12,2013-12-03 19:36:00,
2013-12-03 14:39:00,46.0,35.3,29.76,NW,326,1.0,1.0,66,0.00,,,0.00,Wunderground v.1.12,2013-12-03 19:39:00,
2013-12-03 14:45:00,45.7,35.4,29.76,NNW,329,1.0,1.0,67,0.00,,,0.00,Wunderground v.1.12,2013-12-03 19:45:00,
2013-12-03 14:51:00,45.7,35.7,29.76,NNW,332,0.0,1.0,68,0.00,,,0.00,Wunderground v.1.12,2013-12-03 19:51:00,
2013-12-03 14:56:00,45.8,35.5,29.76,NNW,332,0.0,0.0,67,0.00,,,0.00,Wunderground v.1.12,2013-12-03 19:56:00,
2013-12-03 15:03:00,45.8,35.8,29.77,NNW,332,0.0,0.0,68,0.00,,,0.00,Wunderground v.1.12,2013-12-03 20:03:00,
2013-12-03 15:08:00,45.8,35.8,29.77,NNW,332,0.0,0.0,68,0.00,,,0.00,Wunderground v.1.12,2013-12-03 20:08:00,
2013-12-03 15:13:00,45.7,36.1,29.77,NNW,332,0.0,0.0,69,0.00,,,0.00,Wunderground v.1.12,2013-12-03 20:13:00,
2013-12-03 15:18:00,45.5,35.9,29.77,NNW,332,0.0,0.0,69,0.00,,,0.00,Wunderground v.1.12,2013-12-03 20:18:00,
2013-12-03 15:24:00,45.4,36.2,29.77,NNW,332,0.0,0.0,70,0.00,,,0.00,Wunderground v.1.12,2013-12-03 20:24:00,
2013-12-03 15:30:00,45.2,36.0,29.77,NNW,332,0.0,0.0,70,0.00,,,0.00,Wunderground v.1.12,2013-12-03 20:30:00,
2013-12-03 15:36:00,45.2,36.0,29.77,NNW,332,0.0,0.0,70,0.00,,,0.00,Wunderground v.1.12,2013-12-03 20:36:00,
2013-12-03 15:42:00,45.4,36.2,29.77,NNW,332,0.0,0.0,70,0.00,,,0.00,Wunderground v.1.12,2013-12-03 20:42:00,
2013-12-03 15:48:00,45.4,36.2,29.77,NNW,332,0.0,0.0,70,0.00,,,0.00,Wunderground v.1.12,2013-12-03 20:48:00,
2013-12-03 15:53:00,45.4,36.2,29.77,NNW,332,0.0,0.0,70,0.00,,,0.00,Wunderground v.1.12,2013-12-03 20:53:00,
2013-12-03 15:58:00,45.1,35.9,29.77,NNW,332,0.0,0.0,70,0.00,,,0.00,Wunderground v.1.12,2013-12-03 20:58:00,
2013-12-03 16:04:00,44.5,35.7,29.77,NNW,332,0.0,0.0,71,0.00,,,0.00,Wunderground v.1.12,2013-12-03 21:04:00,
2013-12-03 16:05:00,44.8,36.0,29.77,NNW,338,0.0,2.0,71,0.00,,,0.00,Wunderground v.1.12,2013-12-03 21:05:00,
2013-12-03 16:10:00,43.9,35.5,29.77,NNW,332,0.0,0.0,72,0.00,,,0.00,Wunderground v.1.12,2013-12-03 21:10:00,
2013-12-03 16:15:00,43.5,35.4,29.77,NNW,332,0.0,0.0,73,0.00,,,0.00,Wunderground v.1.12,2013-12-03 21:15:00,
2013-12-03 16:21:00,42.9,34.8,29.77,NNW,332,0.0,0.0,73,0.00,,,0.00,Wunderground v.1.12,2013-12-03 21:21:00,
2013-12-03 16:28:00,42.3,34.9,29.77,NNW,332,0.0,0.0,75,0.00,,,0.00,Wunderground v.1.12,2013-12-03 21:28:00,
2013-12-03 16:33:00,41.9,34.9,29.77,NNW,332,0.0,0.0,76,0.00,,,0.00,Wunderground v.1.12,2013-12-03 21:33:00,
2013-12-03 16:38:00,42.2,35.2,29.77,NNW,338,0.0,1.0,76,0.00,,,0.00,Wunderground v.1.12,2013-12-03 21:38:00,
2013-12-03 16:39:00,41.5,34.8,29.77,NNW,332,0.0,0.0,77,0.00,,,0.00,Wunderground v.1.12,2013-12-03 21:39:00,
2013-12-03 16:44:00,41.1,34.4,29.77,NNW,332,0.0,0.0,77,0.00,,,0.00,Wunderground v.1.12,2013-12-03 21:44:00,
2013-12-03 16:50:00,40.6,34.6,29.78,NNW,332,0.0,0.0,79,0.00,,,0.00,Wunderground v.1.12,2013-12-03 21:50:00,
2013-12-03 16:56:00,40.2,34.5,29.78,NNW,332,0.0,0.0,80,0.00,,,0.00,Wunderground v.1.12,2013-12-03 21:56:00,
2013-12-03 17:03:00,39.8,34.1,29.78,NNW,332,0.0,0.0,80,0.00,,,0.00,Wunderground v.1.12,2013-12-03 22:03:00,
2013-12-03 17:08:00,39.1,33.8,29.78,NNW,332,0.0,0.0,81,0.00,,,0.00,Wunderground v.1.12,2013-12-03 22:08:00,
2013-12-03 17:13:00,38.5,33.8,29.78,NNW,332,0.0,0.0,83,0.00,,,0.00,Wunderground v.1.12,2013-12-03 22:13:00,
2013-12-03 17:19:00,38.2,33.8,29.78,NNW,332,0.0,0.0,84,0.00,,,0.00,Wunderground v.1.12,2013-12-03 22:19:00,
2013-12-03 17:25:00,37.9,33.8,29.78,NNW,332,0.0,0.0,85,0.00,,,0.00,Wunderground v.1.12,2013-12-03 22:25:00,
2013-12-03 17:31:00,37.5,33.4,29.79,NNW,332,0.0,0.0,85,0.00,,,0.00,Wunderground v.1.12,2013-12-03 22:31:00,
2013-12-03 17:35:00,37.5,33.4,29.78,N/A,-737280,0.0,0.0,85,0.00,,,0.00,Wunderground v.1.12,2013-12-03 22:35:00,
2013-12-03 17:38:00,37.2,33.4,29.79,NNW,332,0.0,0.0,86,0.00,,,0.00,Wunderground v.1.12,2013-12-03 22:38:00,
2013-12-03 17:43:00,36.9,33.4,29.79,NNW,332,0.0,0.0,87,0.00,,,0.00,Wunderground v.1.12,2013-12-03 22:43:00,
2013-12-03 17:48:00,36.9,33.4,29.79,NNW,332,0.0,0.0,87,0.00,,,0.00,Wunderground v.1.12,2013-12-03 22:48:00,
2013-12-03 17:54:00,36.8,33.3,29.79,NNW,332,0.0,0.0,87,0.00,,,0.00,Wunderground v.1.12,2013-12-03 22:54:00,
2013-12-03 18:00:00,36.5,33.0,29.79,NNW,332,0.0,0.0,87,0.00,,,0.00,Wunderground v.1.12,2013-12-03 23:00:00,
2013-12-03 18:04:00,36.3,33.1,29.80,NNW,332,0.0,0.0,88,0.00,,,0.00,Wunderground v.1.12,2013-12-03 23:04:00,
2013-12-03 18:05:00,36.3,33.1,29.80,N/A,-737280,0.0,0.0,88,0.00,,,0.00,Wunderground v.1.12,2013-12-03 23:05:00,
2013-12-03 18:10:00,36.2,33.3,29.80,NNW,332,0.0,0.0,89,0.00,,,0.00,Wunderground v.1.12,2013-12-03 23:10:00,
2013-12-03 18:16:00,36.3,33.4,29.80,NW,309,0.0,0.0,89,0.00,,,0.00,Wunderground v.1.12,2013-12-03 23:16:00,
2013-12-03 18:23:00,36.5,33.6,29.80,NW,309,0.0,0.0,89,0.00,,,0.00,Wunderground v.1.12,2013-12-03 23:23:00,
2013-12-03 18:28:00,36.5,33.3,29.80,NW,309,0.0,0.0,88,0.00,,,0.00,Wunderground v.1.12,2013-12-03 23:28:00,
2013-12-03 18:34:00,36.6,33.4,29.81,NW,309,0.0,0.0,88,0.00,,,0.00,Wunderground v.1.12,2013-12-03 23:34:00,
2013-12-03 18:35:00,36.6,33.4,29.81,NW,315,0.0,2.0,88,0.00,,,0.00,Wunderground v.1.12,2013-12-03 23:35:00,
2013-12-03 18:40:00,36.6,33.4,29.81,NW,309,0.0,0.0,88,0.00,,,0.00,Wunderground v.1.12,2013-12-03 23:40:00,
2013-12-03 18:46:00,36.6,33.4,29.81,NW,309,0.0,0.0,88,0.00,,,0.00,Wunderground v.1.12,2013-12-03 23:46:00,
2013-12-03 18:51:00,36.5,33.0,29.81,NW,309,0.0,0.0,87,0.00,,,0.00,Wunderground v.1.12,2013-12-03 23:51:00,
2013-12-03 18:58:00,36.0,32.5,29.81,NW,309,0.0,0.0,87,0.00,,,0.00,Wunderground v.1.12,2013-12-03 23:58:00,
2013-12-03 19:03:00,35.8,32.3,29.81,NW,309,0.0,0.0,87,0.00,,,0.00,Wunderground v.1.12,2013-12-04 00:03:00,
2013-12-03 19:08:00,35.9,32.4,29.81,N/A,-737280,0.0,0.0,87,0.00,,,0.00,Wunderground v.1.12,2013-12-04 00:08:00,
2013-12-03 19:09:00,35.3,31.8,29.81,NW,309,0.0,0.0,87,0.00,,,0.00,Wunderground v.1.12,2013-12-04 00:09:00,
2013-12-03 19:14:00,35.0,31.8,29.81,NW,309,0.0,0.0,88,0.00,,,0.00,Wunderground v.1.12,2013-12-04 00:14:00,
2013-12-03 19:20:00,34.7,31.5,29.81,NW,309,0.0,0.0,88,0.00,,,0.00,Wunderground v.1.12,2013-12-04 00:20:00,
2013-12-03 19:26:00,34.4,31.5,29.81,NW,309,0.0,0.0,89,0.00,,,0.00,Wunderground v.1.12,2013-12-04 00:26:00,
2013-12-03 19:33:00,34.4,31.5,29.80,NW,309,0.0,0.0,89,0.00,,,0.00,Wunderground v.1.12,2013-12-04 00:33:00,
2013-12-03 19:38:00,34.4,31.8,29.80,NW,309,0.0,0.0,90,0.00,,,0.00,Wunderground v.1.12,2013-12-04 00:38:00,
2013-12-03 19:44:00,34.3,31.7,29.80,NW,309,0.0,0.0,90,0.00,,,0.00,Wunderground v.1.12,2013-12-04 00:44:00,
2013-12-03 19:50:00,33.8,31.2,29.80,NW,309,0.0,0.0,90,0.00,,,0.00,Wunderground v.1.12,2013-12-04 00:50:00,
2013-12-03 19:56:00,33.7,31.4,29.80,NW,309,0.0,0.0,91,0.00,,,0.00,Wunderground v.1.12,2013-12-04 00:56:00,
2013-12-03 20:01:00,33.2,30.6,29.81,NW,309,0.0,0.0,90,0.00,,,0.00,Wunderground v.1.12,2013-12-04 01:01:00,
2013-12-03 20:08:00,33.7,31.4,29.81,NW,309,0.0,0.0,91,0.00,,,0.00,Wunderground v.1.12,2013-12-04 01:08:00,
2013-12-03 20:14:00,34.1,31.5,29.81,NW,308,0.0,0.0,90,0.00,,,0.00,Wunderground v.1.12,2013-12-04 01:14:00,
2013-12-03 20:19:00,34.4,31.5,29.81,NW,306,0.0,0.0,89,0.00,,,0.00,Wunderground v.1.12,2013-12-04 01:19:00,
2013-12-03 20:24:00,34.6,31.1,29.81,NW,306,0.0,2.0,87,0.00,,,0.00,Wunderground v.1.12,2013-12-04 01:24:00,
2013-12-03 20:30:00,34.4,30.6,29.81,NW,306,0.0,1.0,86,0.00,,,0.00,Wunderground v.1.12,2013-12-04 01:30:00,
2013-12-03 20:35:00,34.1,30.4,29.81,WSW,257,1.0,6.0,86,0.00,,,0.00,Wunderground v.1.12,2013-12-04 01:35:00,
2013-12-03 20:38:00,34.3,30.5,29.81,NW,315,0.0,2.0,86,0.00,,,0.00,Wunderground v.1.12,2013-12-04 01:38:00,
2013-12-03 20:40:00,34.6,30.6,29.81,West,270,1.0,2.0,85,0.00,,,0.00,Wunderground v.1.12,2013-12-04 01:40:00,
2013-12-03 20:46:00,34.6,30.0,29.81,WNW,286,1.0,2.0,83,0.00,,,0.00,Wunderground v.1.12,2013-12-04 01:46:00,
2013-12-03 20:52:00,34.7,30.1,29.81,WNW,287,1.0,1.0,83,0.00,,,0.00,Wunderground v.1.12,2013-12-04 01:52:00,
2013-12-03 20:58:00,34.9,29.7,29.81,West,276,1.0,1.0,81,0.00,,,0.00,Wunderground v.1.12,2013-12-04 01:58:00,
2013-12-03 21:03:00,34.7,29.5,29.81,West,276,1.0,1.0,81,0.00,,,0.00,Wunderground v.1.12,2013-12-04 02:03:00,
2013-12-03 21:05:00,34.7,29.5,29.81,West,270,1.0,6.0,81,0.00,,,0.00,Wunderground v.1.12,2013-12-04 02:05:00,
2013-12-03 21:09:00,34.4,29.5,29.81,West,276,0.0,0.0,82,0.00,,,0.00,Wunderground v.1.12,2013-12-04 02:09:00,
2013-12-03 21:16:00,34.1,29.5,29.82,West,276,0.0,0.0,83,0.00,,,0.00,Wunderground v.1.12,2013-12-04 02:16:00,
2013-12-03 21:21:00,34.3,29.4,29.82,West,276,1.0,2.0,82,0.00,,,0.00,Wunderground v.1.12,2013-12-04 02:21:00,
2013-12-03 21:28:00,34.4,29.2,29.82,West,267,1.0,4.0,81,0.00,,,0.00,Wunderground v.1.12,2013-12-04 02:28:00,
2013-12-03 21:33:00,34.4,29.2,29.82,West,276,1.0,1.0,81,0.00,,,0.00,Wunderground v.1.12,2013-12-04 02:33:00,
2013-12-03 21:35:00,34.4,29.2,29.82,West,270,1.0,4.0,81,0.00,,,0.00,Wunderground v.1.12,2013-12-04 02:35:00,
2013-12-03 21:38:00,34.4,29.2,29.82,West,279,0.0,4.0,81,0.00,,,0.00,Wunderground v.1.12,2013-12-04 02:38:00,
2013-12-03 21:43:00,34.3,29.1,29.82,West,277,0.0,0.0,81,0.00,,,0.00,Wunderground v.1.12,2013-12-04 02:43:00,
2013-12-03 21:48:00,34.1,28.9,29.82,West,278,0.0,0.0,81,0.00,,,0.00,Wunderground v.1.12,2013-12-04 02:48:00,
2013-12-03 21:54:00,34.0,28.8,29.82,West,279,0.0,0.0,81,0.00,,,0.00,Wunderground v.1.12,2013-12-04 02:54:00,
2013-12-03 22:00:00,33.8,28.9,29.82,West,279,0.0,0.0,82,0.00,,,0.00,Wunderground v.1.12,2013-12-04 03:00:00,
2013-12-03 22:05:00,33.4,28.5,29.82,West,271,0.0,3.0,82,0.00,,,0.00,Wunderground v.1.12,2013-12-04 03:05:00,
2013-12-03 22:11:00,33.4,28.8,29.82,West,271,1.0,1.0,83,0.00,,,0.00,Wunderground v.1.12,2013-12-04 03:11:00,
2013-12-03 22:17:00,33.4,28.8,29.82,West,271,0.0,4.0,83,0.00,,,0.00,Wunderground v.1.12,2013-12-04 03:17:00,
2013-12-03 22:23:00,33.4,28.8,29.82,West,271,0.0,0.0,83,0.00,,,0.00,Wunderground v.1.12,2013-12-04 03:23:00,
2013-12-03 22:28:00,33.2,28.6,29.82,West,271,0.0,0.0,83,0.00,,,0.00,Wunderground v.1.12,2013-12-04 03:28:00,
2013-12-03 22:33:00,33.1,28.5,29.81,West,271,0.0,0.0,83,0.00,,,0.00,Wunderground v.1.12,2013-12-04 03:33:00,
2013-12-03 22:35:00,33.2,28.6,29.81,West,270,0.0,4.0,83,0.00,,,0.00,Wunderground v.1.12,2013-12-04 03:35:00,
2013-12-03 22:38:00,32.9,28.3,29.81,West,271,0.0,0.0,83,0.00,,,0.00,Wunderground v.1.12,2013-12-04 03:38:00,
2013-12-03 22:43:00,32.8,28.5,29.81,West,271,0.0,0.0,84,0.00,,,0.00,Wunderground v.1.12,2013-12-04 03:43:00,
2013-12-03 22:48:00,32.7,28.4,29.82,West,271,0.0,0.0,84,0.00,,,0.00,Wunderground v.1.12,2013-12-04 03:48:00,
2013-12-03 22:54:00,32.2,28.2,29.82,West,271,0.0,1.0,85,0.00,,,0.00,Wunderground v.1.12,2013-12-04 03:54:00,
2013-12-03 22:59:00,32.4,28.7,29.82,West,271,0.0,0.0,86,0.00,,,0.00,Wunderground v.1.12,2013-12-04 03:59:00,
2013-12-03 23:04:00,32.5,28.5,29.82,West,271,0.0,0.0,85,0.00,,,0.00,Wunderground v.1.12,2013-12-04 04:04:00,
2013-12-03 23:07:00,32.4,28.4,29.83,West,270,0.0,2.0,85,0.00,,,0.00,Wunderground v.1.12,2013-12-04 04:07:00,
2013-12-03 23:10:00,32.5,28.5,29.82,West,271,0.0,0.0,85,0.00,,,0.00,Wunderground v.1.12,2013-12-04 04:10:00,
2013-12-03 23:16:00,32.2,28.2,29.83,West,271,0.0,0.0,85,0.00,,,0.00,Wunderground v.1.12,2013-12-04 04:16:00,
2013-12-03 23:21:00,32.1,28.4,29.83,West,271,0.0,0.0,86,0.00,,,0.00,Wunderground v.1.12,2013-12-04 04:21:00,
2013-12-03 23:28:00,31.8,28.1,29.83,West,271,0.0,0.0,86,0.00,,,0.00,Wunderground v.1.12,2013-12-04 04:28:00,
2013-12-03 23:33:00,31.5,27.8,29.83,West,271,0.0,1.0,86,0.00,,,0.00,Wunderground v.1.12,2013-12-04 04:33:00,
2013-12-03 23:38:00,31.6,27.9,29.83,West,270,0.0,3.0,86,0.00,,,0.00,Wunderground v.1.12,2013-12-04 04:38:00,
2013-12-03 23:40:00,31.3,27.9,29.83,West,271,0.0,2.0,87,0.00,,,0.00,Wunderground v.1.12,2013-12-04 04:40:00,
2013-12-03 23:45:00,31.5,28.4,29.83,West,268,1.0,2.0,88,0.00,,,0.00,Wunderground v.1.12,2013-12-04 04:45:00,
2013-12-03 23:51:00,31.6,28.5,29.83,West,268,1.0,1.0,88,0.00,,,0.00,Wunderground v.1.12,2013-12-04 04:51:00,
2013-12-03 23:56:00,31.8,28.4,29.83,West,269,1.0,1.0,87,0.00,,,0.00,Wunderground v.1.12,2013-12-04 04:56:00,